Regional Weather Roundup
Issued by NWS

Home | Current Version | Previous Version | Text Only | Print | Product List | Glossary Off
Versions: 1 2 3 4 5 6 7 8 9 10 11 12 13 14 15 16 17 18 19 20 21 22 23 24 25 26 27 28 29 30 31 32 33 34 35 36 37 38 39 40 41 42 43 44 45 46 47 48 49 50

000
ASUS45 KABQ 160110
RWRNM
WEATHER ROUNDUP FOR NEW MEXICO
NATIONAL WEATHER SERVICE ALBUQUERQUE NM
700 PM MDT TUE APR 15 2014

NOTE: "FAIR" MEANS FEW OR NO CLOUDS BELOW 12,000 FEET AGL WITH NO
       SIGNIFICANT WEATHER OR OBSTRUCTIONS TO VISION.

      THIS PRODUCT IS RELEASED AS TWO VERSIONS.  ONE VERSION NEAR
      THE TOP OF THE HOUR CONTAINING PRELIMINARY DATA FROM ALBUQUERQUE
      AND OTHER STATIONS.  A FINAL VERSION WITH ADDITIONAL DATA IS
      ISSUED ABOUT 10 MINUTES AFTER THE HOUR.

NMZ501-503-504-510>518-160200-
NORTHWEST PLATEAU/NORTHCENTRAL MOUNTAINS

CITY           SKY/WX    TMP DP  RH WIND       PRES   REMARKS
FARMINGTON     CLEAR     62   3   9 CALM      29.91F
LOS ALAMOS     MOCLDY    56   3  11 W7        29.97F
SANTA FE       PTCLDY    59   5  11 SW14      29.93F
TAOS           MOCLDY    55   3  12 W21       29.98S
ANGEL FIRE     FAIR      48   2  15 W18G32    29.95F

$$
NMZ402-403-502-505>509-160200-
WESTCENTRAL MOUNTAINS/SOUTHWEST MOUNTAINS

CITY           SKY/WX    TMP DP  RH WIND       PRES   REMARKS
GALLUP         CLOUDY    61  -7   6 W15       29.98F
GRANTS         CLOUDY    60  -3   8 NW17      29.98F
SILVER CITY    MOCLDY    64   7  10 S6        30.01F

$$
NMZ407-409-411-412-160200-
SOUTHERN DESERTS

CITY           SKY/WX    TMP DP  RH WIND       PRES   REMARKS
LORDSBURG      FAIR      72  14  11 E8        29.91F
DEMING         MOCLDY    69   9   9 S7        29.94F
LAS CRUCES     MOCLDY    66   8  10 SE8       29.98S
HOLLOMAN AFB   MOCLDY    66   5   9 S10       29.95F
ALAMOGORDO     MOCLDY    64   5   9 S12       29.97S
T OR C         MOCLDY    66   7  10 S22G30    29.92F

$$
NMZ519>523-160200-
CENTRAL VALLEYS/CENTRAL HIGHLANDS

CITY           SKY/WX    TMP DP  RH WIND       PRES   REMARKS
ALBUQUERQUE    MOCLDY    65  12  12 SW16G23   29.92S
DOUBLE EAGLE   MOCLDY    61  14  16 S14       29.94F
MORIARTY ARPT  FAIR      59  12  16 SW21      29.95F
CLINES CORNERS MOCLDY    56  11  16 W17       29.95F
BELEN          FAIR      63  14  15 S20G28    29.90F
SOCORRO        FAIR      64  10  12 SE18G24   29.91F

$$
NMZ524>526-539-540-160200-
SOUTHCENTRAL MOUNTAINS

CITY           SKY/WX    TMP DP  RH WIND       PRES   REMARKS
RUIDOSO        CLOUDY    54   5  14 SW21G29   30.02F

$$
NMZ527>531-160200-
NORTHEAST HIGHLANDS/NORTHEAST PLAINS

CITY           SKY/WX    TMP DP  RH WIND       PRES   REMARKS
LAS VEGAS      MOCLDY    55   8  15 SW16      29.92R
RATON          CLOUDY    63   6  10 SW15G22   29.81F
CLAYTON        CLOUDY    61  16  17 S22       29.80F

$$
NMZ532>537-160200-
EASTCENTRAL PLAINS

CITY           SKY/WX    TMP DP  RH WIND       PRES   REMARKS
TUCUMCARI      CLOUDY    66  12  12 SW28G36   29.81F
CANNON AFB     MOCLDY    60   6  11 S20       29.91F
CLOVIS AIRPORT MOCLDY    61   9  12 S20G28    29.94F

$$
NMZ028-029-538-160200-
SOUTHEAST PLAINS

CITY           SKY/WX    TMP DP  RH WIND       PRES   REMARKS
ROSWELL        MOCLDY    68   9  10 S21       29.90F
ARTESIA        MOCLDY    66   9  10 S17       29.93F
CARLSBAD       PTCLDY    68   2   7 SE14      29.93F
HOBBS          CLEAR     61   3  10 S15       29.99F


$$



USA.gov is the U.S. government's official web portal to all federal, state and local government web resources and services.